Regional Weather Roundup
Issued by NWS

Home | Current Version | Previous Version | Text Only | Print | Product List | Glossary Off
Versions: 1 2 3 4 5 6 7 8 9 10 11 12 13 14 15 16 17 18 19 20 21 22 23 24 25 26 27 28 29 30 31 32 33 34 35 36 37 38 39 40 41 42 43 44 45 46 47 48 49 50

000
ASUS43 KMPX 241810
RWRMN
WEATHER ROUNDUP FOR MINNESOTA
NATIONAL WEATHER SERVICE TWIN CITIES/CHANHASSEN MN
100 PM CDT FRI MAR 24 2017


NOTE: "FAIR" INDICATES FEW OR NO CLOUDS BELOW 12,000 FEET WITH NO
SIGNIFICANT WEATHER AND/OR OBSTRUCTIONS TO VISIBILITY. N/A MEANS
CURRENT SKY AND/OR WEATHER CONDITIONS ARE NOT AVAILABLE.

MNZ060>063-068>070-241900-
   Twin Cities Metro

CITY           SKY/WX    TMP DP  RH WIND       PRES   REMARKS
TWIN CITIES    CLOUDY    42  35  76 N12       30.06R
6HR MIN TEMP:  38; 6HR MAX TEMP:  42; 6HR PCP: TRACE;

ST PAUL        CLOUDY    42  37  82 N13       30.07R
CRYSTAL        CLOUDY    43  34  70 N9        30.05R
BLAINE         CLOUDY    45  39  81 NE9G17    30.05R
LAKEVILLE      CLOUDY    39  39 100 N9        30.03R
EDEN PRAIRIE   CLOUDY    44  36  73 N10       30.04R
6HR MIN TEMP:  38; 6HR MAX TEMP:  43; 6HR PCP: TRACE;

SOUTH ST PAUL  CLOUDY    41  37  84 N9        30.05R
LAKE ELMO      CLOUDY    41  37  87 N9        30.05R
$$
MNZ001>005-007-008-013>017-022>024-027-028-241900-
   Northwest Minnesota

CITY           SKY/WX    TMP DP  RH WIND       PRES   REMARKS
BEMIDJI        PTSUNNY   38  32  79 NW9       30.13R
HALLOCK        CLOUDY    34  30  86 N9        30.21R WCI  26
ROSEAU         PTSUNNY   36  28  75 N10       30.19R
WARROAD        CLOUDY    36  27  69 N12       30.19R
THIEF RVR FALL CLOUDY   N/A N/A N/A N13       30.18R
CROOKSTON      CLOUDY    36  30  80 N12       30.20R
FOSSTON        CLOUDY    36  30  80 N10G16    30.16R
DETROIT LAKES  PTSUNNY   39  34  81 N12       30.14S
MOORHEAD       CLOUDY    36  30  80 N14       30.20R
PARK RAPIDS    CLOUDY    40  29  64 N12       30.11R
MAHNOMEN       CLOUDY    36  31  83 N9        30.15R
$$
MNZ006-009>011-018-025>026-241900-
   North Central Minnesota

CITY           SKY/WX    TMP DP  RH WIND       PRES   REMARKS
BAUDETTE       CLOUDY    39  26  59 N13       30.14R
FLAG ISLAND    CLOUDY    34  21  60 N12G17    30.18R WCI  25
INTL FALLS     CLOUDY    38  27  64 N8        30.13R
6HR MIN TEMP:  33; 6HR MAX TEMP:  39;

WASKISH        CLOUDY    41  30  65 NW6       30.13R
BIG FORK       CLOUDY    39  32  75 N8        30.11R
LONGVILLE      CLOUDY    37  36  93 NW6       30.11R
GRAND RAPIDS   CLOUDY    38  33  82 N8        30.12R
CRANE LAKE     CLOUDY    36  30  80 N6        30.13R
ORR            CLOUDY    37  30  75 CALM      30.08R
COOK           CLOUDY    36  34  93 N3        30.10R
WALKER         CLOUDY    38  31  75 N8        30.12R
$$
MNZ012-019>021-037-241900-
   Northeast Minnesota

CITY           SKY/WX    TMP DP  RH WIND       PRES   REMARKS
DULUTH         CLOUDY    37  34  89 N8        30.08R FOG
6HR MIN TEMP:  33; 6HR MAX TEMP:  37; 6HR PCP: TRACE;

ELY            CLOUDY    36  34  93 NE5       30.08R
HIBBING        CLOUDY    35  33  92 N6        30.10R WCI  30
EVELETH        CLOUDY    37  35  90 N3        30.10R FOG
DULUTH HARBOR  CLOUDY    37  36  93 CALM      30.12R
TWO HARBORS    CLOUDY    41  36  81 NE5       30.07R
SILVER BAY     CLOUDY    39  36  87 NE6       30.07R
GRAND MARAIS     N/A     37  33  85 SW3       30.09R
G MARAIS ARPRT CLOUDY    34  28  80 N6        30.06R WCI  29
$$
MNZ029>031-032-039>041-046>048-054>057-064-241900-
   West Central Minnesota

CITY           SKY/WX    TMP DP  RH WIND       PRES   REMARKS
FERGUS FALLS   CLOUDY    41  34  75 N9        30.16S
WHEATON        CLOUDY    39  34  81 N15       30.15F
MORRIS         CLOUDY    39  36  87 N17       30.09F
ALEXANDRIA     CLOUDY    37  34  89 N13       30.10F
ELBOW LAKE     CLOUDY    38  33  81 NE12      30.12F HAZE
WADENA         CLOUDY    37  32  81 N12       30.11R
GLENWOOD       CLOUDY    36  34  93 N12       30.09F FOG
APPLETON       CLOUDY    39  36  87 N18       30.09F
BENSON         CLOUDY    41  34  75 NE14G22   30.09F
ORTONVILLE     CLOUDY    37  34  87 N17       30.10F
MADISON        CLOUDY    39  39 100 N17G23    30.09R FOG
WILLMAR        CLOUDY    39  37  93 N15G21    30.07F
$$
MNZ033>034-036-042>043-049>051-058-059-241900-
   Central Minnesota

CITY           SKY/WX    TMP DP  RH WIND       PRES   REMARKS
ST CLOUD       CLOUDY    39  34  82 N14       30.08R
6HR MIN TEMP:  34; 6HR MAX TEMP:  41;

SAUK CENTRE    CLOUDY    36  33  90 N10G17    30.10R
PAYNESVILLE      N/A     38  38 100 N12G17    30.06F
AITKIN         CLOUDY    39  32  75 N8        30.09R
PINE RIVER     CLOUDY    37  32  81 N10       30.14R
BRAINERD       CLOUDY    38  33  82 NE8       30.10R
STAPLES        CLOUDY    36  34  93 N9        30.11S
LONG PRAIRIE   CLOUDY    34  32  93 NW9       30.10R WCI  26
LITTLE FALLS   CLOUDY    36  32  87 N6        30.10R
LITCHFIELD     CLOUDY    43  37  81 N15G21    30.06F
BUFFALO        CLOUDY    43  36  76 N10       30.07R
MAPLE LAKE     CLOUDY    43  38  83 N14       30.07R
HUTCHINSON     PTSUNNY   44  38  81 N13G22    30.03F
$$
MNZ037-044-045-052-053-241900-
   East Central Minnesota

CITY           SKY/WX    TMP DP  RH WIND       PRES   REMARKS
PRINCETON      CLOUDY    43  36  75 N12       30.08R
MORA           CLOUDY    37  32  81 N5        30.08R
CAMBRIDGE      CLOUDY    43  34  70 N8        30.05R
RUSH CITY      CLOUDY    40  34  79 N10       30.06R
MOOSE LAKE     CLOUDY    36  32  87 N10       30.07R
HINCKLEY       CLOUDY    39  36  87 N8G17     30.07S
CLOQUET        CLOUDY    36  34  93 N7        30.08R FOG
MCGREGOR       CLOUDY    36  34  93 N9        30.10R
$$
MNZ071>073-080-081-089-090-097-098-241900-
   Southwest Minnesota

CITY           SKY/WX    TMP DP  RH WIND       PRES   REMARKS
MONTEVIDEO     CLOUDY    39  37  93 NE20G25   30.09R
GRANITE FALLS  CLOUDY    44  38  81 N13G20    30.08R
CANBY          CLOUDY    40  37  89 N14G22    30.10R
MARSHALL       CLOUDY    41  37  86 N12       30.08R
REDWOOD FALLS  CLOUDY    44  36  73 N10       30.05R
OLIVIA         CLOUDY    43  36  75 N16       30.05R
PIPESTONE      CLOUDY    39  34  81 NE17G24   30.03S
WINDOM         CLOUDY    39  37  93 N15       30.04R
WORTHINGTON    CLOUDY    37  36  96 N13       30.05R
JACKSON        CLOUDY    36  36 100 N14G20    30.03R FOG
TRACY          CLOUDY    41  38  89 NE9       30.07R
SLAYTON        CLOUDY    37  35  95 N12       30.05R
$$
MNZ065>067-074>077-082>085-091>093-241900-
   South Central Minnesota

CITY           SKY/WX    TMP DP  RH WIND       PRES   REMARKS
MANKATO        CLOUDY    39  36  89 N16       30.02R
NEW ULM        CLOUDY    41  36  81 NE13      30.04R
ST JAMES       CLOUDY    39  37  93 N14       30.05R
FAIRMONT       CLOUDY    39  37  92 N14       30.03R
GLENCOE        CLOUDY    42  42 100 N10G16    30.02F
FARIBAULT      CLOUDY    39  39 100 N13G22    30.02R FOG
OWATONNA       CLOUDY    39  37  93 N13       30.00R FOG
WASECA         CLOUDY    39  36  87 N13       30.02R
ALBERT LEA     CLOUDY    39  39 100 NE12      29.98R FOG
$$
MNZ078>079-086>088-094>096-241900-
   Southeast Minnesota

CITY           SKY/WX    TMP DP  RH WIND       PRES   REMARKS
ROCHESTER      LGT RAIN  40  39  97 N10       29.97R
6HR MIN TEMP:  37; 6HR MAX TEMP:  40; 6HR PCP:  0.07;

RED WING       RAIN      41  37  87 N7        30.01R
STANTON        CLOUDY    40  37  88 N16       30.01R FOG
DODGE CENTER   CLOUDY    39  37  93 N14       29.98R FOG
WINONA         DRIZZLE   41  37  87 N3        29.99R
AUSTIN         CLOUDY    41  37  87 NE8       29.98R
PRESTON        CLOUDY    39  37  92 N10       29.95R FOG
$$
ABBREVIATIONS USED IN REMARKS
   TC - TEMPERATURES IN CELSIUS
  WCI - WIND CHILL INDEX
   HX - HEAT INDEX
  VSB - VISIBILITY
$$




USA.gov is the U.S. government's official web portal to all federal, state and local government web resources and services.